Regional Weather Roundup
Issued by NWS Cleveland, OH

Home | Current Version | Previous Version | Graphics & Text | Print | Product List | Glossary On
Versions: 1 2 3 4 5 6 7 8 9 10 11 12 13 14 15 16 17 18 19 20 21 22 23 24 25 26 27 28 29 30 31 32 33 34 35 36 37 38 39 40 41 42 43 44 45 46 47 48 49 50
000
ASUS41 KCLE 241202
RWRCLE
OHIO REGIONAL WEATHER ROUNDUP
NATIONAL WEATHER SERVICE CLEVELAND, OH
800 AM EDT SUN MAY 24 2015

NOTE: "FAIR" INDICATES FEW OR NO CLOUDS BELOW 12,000 FEET WITH NO
SIGNIFICANT WEATHER AND/OR OBSTRUCTIONS TO VISIBILITY.

OHZ001>008-015>018-024>027-034-035-043-044-241300-
   NORTHWEST OHIO

CITY           SKY/WX    TMP DP  RH WIND       PRES   REMARKS
DEFIANCE       PTSUNNY   58  52  80 CALM      30.28S
FINDLAY        SUNNY     62  47  57 SE6       30.29R
TOLEDO EXPRESS MOSUNNY   57  50  77 CALM      30.28F
TOLEDO EXEC    SUNNY     61  47  59 S5        30.30S
LIMA           MOSUNNY   63  47  55 S9        30.29S
$$

OHZ009>014-019>023-028>033-038-089-241300-
   NORTHEAST OHIO

CITY           SKY/WX    TMP DP  RH WIND       PRES   REMARKS
CLE-HOPKINS    MOSUNNY   63  45  51 S6        30.33S
CLE-LAKEFRONT  SUNNY     63  43  48 S10       30.30S
CUY CO. ARPT   SUNNY     68  41  37 S9        30.33R
LORAIN-ELYRIA  SUNNY     59  45  59 SW6       30.32R
ASHTABULA      SUNNY     56  44  64 S7        30.34S
AKRON-CANTON   MOSUNNY   60  44  55 VRB6      30.35R
WOOSTER        SUNNY     60  44  55 S6        30.35R
MANSFIELD      SUNNY     62  46  55 S6        30.33S
YOUNGSTOWN     MOSUNNY   59  41  51 S5        30.35R
$$

OHZ042-051>053-060>062-070>072-077>081-241300-
  SOUTHWEST OHIO

CITY           SKY/WX    TMP DP  RH WIND       PRES   REMARKS
CINC-COVINGTON MOSUNNY   65  51  60 S6        30.28S
CINC-LUNKEN    SUNNY     56  53  90 CALM      30.30S
HAMILTON       SUNNY     62  52  69 E3        30.31R
DAYTON         MOSUNNY   64  48  56 SE7       30.30S
WRIGHT-PAT AFB NOT AVBL
DAYTON GENERAL MOSUNNY   64  47  53 SE8       30.29R
WILMINGTON     SUNNY     63  46  54 SE5       30.30S
$$

OHZ036-037-039>041-045>050-054>059-063>069-073>076-082>088-241300-
  CENTRAL AND SOUTHEAST OHIO

CITY           SKY/WX    TMP DP  RH WIND       PRES   REMARKS
COLUMBUS       MOSUNNY   60  50  69 CALM      30.32R
OSU AIRPORT    SUNNY     61  47  59 SE5       30.32R
BOLTON FIELD   SUNNY     61  50  67 CALM      30.33S
RICKENBACK AFB NOT AVBL
NEWARK         SUNNY     55  49  80 CALM      30.33S
MARION         MOSUNNY   61  46  57 SE7       30.32S
LANCASTER      MOSUNNY   60  49  66 SE6       30.33R
ZANESVILLE     SUNNY     53  46  77 CALM      30.34S
NEW PHILLY     SUNNY     54  47  77 SE3       30.36S
$$


USA.gov is the U.S. government's official web portal to all federal, state and local government web resources and services.